CHUBUSAT-2

Last updated on Fri Feb 16 2018 09:50:01 GMT+0000 (Greenwich Mean Time)

1 41338U 16012B 18047.19888635 .00000422 00000-0 26328-4 0 9990 2 41338 31.0046 2.3085 0013851 314.8034 45.1474 14.99919642109654
UTC large
Height (km)
Speed (km/s)
/
Latitude / Longitude
Inclination (degrees)
Orbital Period (minutes)
Azimuth
Elevation
Range (km)
Doppler Factor

Next 0 passes for location: London (51.5072 / 0.1276)

Sorry there are no passes over London.